PA3DZX-13 Weather Reports


time (UTC)temp
F
wind
direction
speed
knots
gust
knots
rain 1hr
in
rain 24hr
in
rain mn
in
humidity
%
barometer
mb
20260506121013 48 8 9.6 13.0 0.00 0.00 0.00 86 1008.8
20260506115513 48 15 7.0 13.0 0.00 0.00 0.00 87 1008.7
20260506114013 48 14 7.0 13.0 0.00 0.00 0.00 89 1008.6
20260506112513 48 20 7.0 14.8 0.00 0.00 0.00 89 1008.5
20260506111012 48 12 5.2 11.3 0.00 0.00 0.00 93 1008.5
20260506105512 46 17 7.0 11.3 0.00 0.00 0.00 93 1008.5
20260506104011 46 21 7.0 11.3 0.00 0.00 0.00 90 1008.4
20260506102511 46 21 7.0 13.0 0.00 0.00 0.00 92 1008.3
20260506101011 46 23 9.6 14.8 0.00 0.00 0.00 92 1008.3
20260506095510 46 23 7.0 11.3 0.01 0.00 0.00 94 1008.2
20260506094010 46 26 7.0 9.6 0.01 0.00 0.00 90 1008.2
20260506092510 46 27 7.0 13.0 0.02 0.00 0.00 92 1008.1
20260506091009 46 25 5.2 11.3 0.03 0.00 0.00 92 1008.1
20260506085509 46 20 5.2 11.3 0.02 0.00 0.00 92 1008.1
20260506084008 44 18 7.0 11.3 0.03 0.00 0.00 91 1008.0
20260506082508 44 16 5.2 9.6 0.01 0.00 0.00 91 1007.9
20260506081007 44 18 5.2 9.6 0.01 0.00 0.00 91 1007.9
20260506072506 44 41 9.6 14.8 0.01 0.00 0.00 92 1007.6
20260506071005 44 32 11.3 14.8 0.02 0.00 0.00 92 1007.5
20260506062503 46 31 11.3 19.1 0.01 0.00 0.00 91 1007.3
20260506061003 46 27 9.6 13.0 0.01 0.00 0.00 94 1007.2
20260506051001 46 15 7.0 9.6 0.00 0.00 0.00 96 1007.1
20260506044000 46 1 5.2 9.6 0.01 0.00 0.00 97 1007.1
20260506042500 46 355 5.2 9.6 0.01 0.00 0.00 98 1007.1
20260506040959 46 356 5.2 7.0 0.05 0.00 0.00 98 1007.2
20260506035459 46 352 3.5 5.2 0.06 0.00 0.00 98 1007.4
20260506033959 46 351 3.5 7.0 0.06 0.00 0.00 99 1007.4
20260506032459 46 354 3.5 7.0 0.07 0.00 0.00 98 1007.5
20260506030959 46 4 5.2 9.6 0.05 0.00 0.00 98 1007.6
20260506025500 46 2 5.2 9.6 0.05 0.00 0.00 98 1007.6
20260506023958 48 7 5.2 11.3 0.03 0.00 0.00 98 1007.7
20260506022458 48 13 5.2 11.3 0.03 0.00 0.00 98 1007.8
20260506020958 48 14 5.2 9.6 0.03 0.00 0.00 98 1007.9
20260506015458 48 11 5.2 9.6 0.03 0.00 0.00 98 1008.0
20260506013957 48 12 5.2 11.3 0.03 0.00 0.00 98 1008.1
20260506012457 48 9 7.0 11.3 0.02 0.00 0.00 98 1008.1
20260506010957 48 7 7.0 11.3 0.01 0.00 0.00 97 1008.3
20260506005457 46 15 5.2 9.6 0.00 0.00 0.00 97 1008.4
20260506003957 48 14 7.0 11.3 0.00 0.00 0.00 97 1008.5
20260506002457 48 15 7.0 11.3 0.00 0.00 0.00 97 1008.5
20260506000956 46 13 5.2 11.3 0.00 0.00 0.00 97 1008.8
20260505235456 46 16 5.2 11.3 0.00 0.00 0.00 97 1008.8
20260505233955 46 13 7.0 13.0 0.00 0.00 0.00 97 1008.8
20260505232456 46 11 9.6 13.0 0.00 0.00 0.00 96 1009.0
20260505230955 48 12 9.6 13.0 0.00 0.00 0.00 95 1009.1
20260505225455 48 13 7.0 11.3 0.00 0.00 0.00 95 1009.1
20260505223955 48 9 7.0 11.3 0.00 0.00 0.00 95 1009.1
20260505222455 48 9 7.0 11.3 0.00 0.00 0.00 94 1009.2
20260505220954 48 9 9.6 13.0 0.00 0.00 0.00 92 1009.3
20260505215453 48 7 7.0 13.0 0.00 0.00 0.00 91 1009.3
20260505213953 50 9 7.0 13.0 0.00 0.00 0.00 88 1009.5
20260505212453 50 18 9.6 14.8 0.00 0.00 0.00 87 1009.5
20260505210953 50 7 9.6 17.4 0.00 0.00 0.00 85 1009.6
20260505205452 50 12 7.0 13.0 0.00 0.00 0.00 84 1009.5
20260505203951 50 19 9.6 13.0 0.00 0.00 0.00 83 1009.5
20260505202451 50 14 7.0 13.0 0.00 0.00 0.00 82 1009.5
20260505200951 51 10 7.0 13.0 0.00 0.00 0.00 82 1009.4
20260505195450 51 11 5.2 11.3 0.00 0.00 0.00 82 1009.4
20260505193949 51 10 5.2 9.6 0.00 0.00 0.00 83 1009.3
20260505192448 51 1 5.2 9.6 0.00 0.00 0.00 82 1009.2
20260505190948 51 5 5.2 9.6 0.00 0.00 0.00 83 1009.1
20260505185447 51 4 5.2 9.6 0.00 0.00 0.00 83 1009.2
20260505183947 51 4 5.2 9.6 0.00 0.00 0.00 83 1009.2
20260505182446 51 5 5.2 7.0 0.00 0.00 0.00 84 1009.2
20260505180945 51 12 3.5 7.0 0.00 0.00 0.00 85 1009.2
20260505175445 51 14 5.2 7.0 0.00 0.00 0.00 85 1009.2
20260505173944 51 13 5.2 7.0 0.00 0.00 0.00 86 1009.3
20260505172444 51 6 5.2 7.0 0.00 0.00 0.00 86 1009.3
20260505170943 51 10 5.2 7.0 0.00 0.00 0.00 85 1009.5
20260505165443 51 8 5.2 7.0 0.00 0.00 0.00 86 1009.5
20260505163942 51 22 3.5 9.6 0.00 0.00 0.00 86 1009.6
20260505162441 51 23 5.2 9.6 0.00 0.00 0.00 85 1009.6
20260505160940 51 36 5.2 9.6 0.00 0.00 0.00 85 1009.6
20260505152439 51 30 7.0 11.3 0.00 0.00 0.00 86 1010.0
20260505150938 50 28 9.6 11.3 0.00 0.00 0.00 86 1010.0
20260505123932 50 19 7.0 11.3 0.00 0.00 0.00 91 1011.0
20260505122432 50 28 5.2 11.3 0.00 0.00 0.00 93 1011.0